Location: Albany
(35.0000°S, 118.0000°E)
Time: 22:00:46
(UTC-04:00)

ISS - All Passes

Search period start: 20 April 2014 00:00
Search period end: 30 April 2014 00:00
Orbit: 414 x 419 km, 51.6° (Epoch: 20 April)

Date Brightness Start Highest point End Pass type
(mag) Time Alt. Az. Time Alt. Az. Time Alt. Az.
20 Apr - 14:12:50 10° NW 14:16:11 65° SW 14:19:34 10° SE night (unlit)
20 Apr - 15:52:28 10° SW 15:53:29 11° SSW 15:54:30 10° S visible
20 Apr - 20:44:31 10° SSW 20:47:37 33° SE 20:50:42 10° ENE daylight
20 Apr - 22:21:38 10° W 22:24:12 20° NW 22:26:45 10° N daylight
21 Apr - 13:24:21 10° NW 13:27:41 64° NE 13:31:03 10° SE night (unlit)
21 Apr - 15:02:34 10° WSW 15:04:43 16° SSW 15:06:52 10° S night (unlit)
21 Apr - 19:56:19 10° SSW 19:58:57 21° SSE 20:01:35 10° E daylight
21 Apr - 21:32:37 10° WSW 21:35:47 38° NW 21:38:56 10° NNE daylight
22 Apr - 12:36:09 10° NNW 12:39:11 32° NE 12:42:14 10° ESE night (unlit)
22 Apr - 14:13:08 10° W 14:15:56 23° SSW 14:18:45 10° SSE night (unlit)
22 Apr - 19:08:15 10° S 19:10:09 14° SSE 19:12:01 10° ESE daylight
22 Apr - 20:43:51 10° SW 20:47:15 79° NW 20:50:36 10° NE daylight
23 Apr - 11:48:25 10° N 11:50:40 17° NE 11:52:57 10° E night (unlit)
23 Apr - 13:23:58 10° WNW 13:27:10 38° SW 13:30:23 10° SSE night (unlit)
23 Apr - 19:55:14 10° SW 19:58:34 53° SE 20:01:52 10° ENE daylight
23 Apr - 21:33:33 10° WNW 21:34:55 12° NW 21:36:16 10° NNW daylight
24 Apr - 12:35:02 10° NW 12:38:23 73° SW 12:41:47 10° SE night (unlit)
24 Apr - 14:14:21 10° SW 14:15:38 12° SSW 14:16:55 10° S night (unlit)
24 Apr - 19:06:42 10° SSW 19:09:45 30° SE 19:12:46 10° E daylight
24 Apr - 20:43:38 10° WSW 20:46:21 23° NW 20:49:02 10° N daylight
25 Apr - 11:46:19 10° NNW 11:49:37 56° NE 11:52:58 10° SE night (unlit)
25 Apr - 13:24:18 10° WSW 13:26:35 17° SSW 13:28:53 10° SSE night (unlit)
25 Apr - 18:18:15 10° SSW 18:20:47 19° SSE 18:23:17 10° E daylight
25 Apr - 19:54:24 10° WSW 19:57:39 44° NW 20:00:51 10° NNE daylight
26 Apr - 10:57:56 10° NNW 11:00:51 28° NE 11:03:49 10° ESE night (unlit)
26 Apr - 12:34:39 10° W 12:37:32 25° SW 12:40:27 10° SSE night (unlit)
26 Apr - 17:29:59 10° S 17:31:40 13° SSE 17:33:22 10° SE visible
26 Apr - 19:05:25 10° SW 19:08:49 89° NW 19:12:10 10° NE daylight
27 Apr - 10:10:05 10° NNE 10:12:05 15° NE 10:14:05 10° E night (unlit)
27 Apr - 11:45:16 10° WNW 11:48:30 43° SW 11:51:46 10° SE night (unlit)
27 Apr - 18:16:33 10° SW 18:19:50 47° SE 18:23:06 10° ENE visible
27 Apr - 19:54:26 10° W 19:56:13 14° NW 19:57:59 10° NNW daylight
28 Apr - 10:56:06 10° NW 10:59:28 84° SW 11:02:52 10° SE night (unlit)
28 Apr - 12:35:05 10° SW 12:36:38 13° SSW 12:38:11 10° S night (unlit)
28 Apr - 17:27:46 10° SSW 17:30:43 27° SE 17:33:39 10° E visible
28 Apr - 19:04:29 10° WSW 19:07:21 26° NW 19:10:12 10° N daylight
29 Apr - 10:07:12 10° NNW 10:10:26 48° NE 10:13:43 10° ESE night (unlit)
29 Apr - 11:44:53 10° WSW 11:47:19 18° SSW 11:49:46 10° SSE night (unlit)
29 Apr - 16:39:05 10° SSW 16:41:27 18° SSE 16:43:49 10° ESE visible
29 Apr - 18:15:04 10° WSW 18:18:22 51° NW 18:21:38 10° NNE visible
